Terminal Aerodrome Forecast
Issued by NWS Wilmington, NC

Home | Current Version | Previous Version | Text Only | Print | Product List | Glossary On
Versions: 1 2 3 4 5 6 7 8 9 10 11 12 13 14 15 16 17 18 19 20 21 22 23 24 25 26 27 28 29 30 31 32 33 34
000
FTUS42 KILM 270500
TAFILM
TAF
KILM 270533Z 2706/2806 00000KT 6SM BR FEW100
      TEMPO 2706/2708 4SM BR
     FM270800 23004KT P6SM SCT080
     FM271400 28015G22KT P6SM SCT040
     FM272300 31008KT P6SM SKC=

USA.gov is the U.S. government's official web portal to all federal, state and local government web resources and services.